Location: Arbon
(43.0005°N, 0.7472°E)
Time: 02:58:26
(UTC+00:00)

Cosmos 1758 - Pass Details

Date: 07 August 2020
Orbit: 540 x 562 km, 82.5° (Epoch: 27 September)

Event Time Altitude Azimuth Distance (km) Brightness Sun altitude
Exits shadow 03:12:51 33° 220° (SW) 944 3.9 -16.4°
Maximum altitude 03:14:23 55° 280° (W) 673 3.5 -16.2°
Drops below altitude 10° 03:18:22 10° 359° (N) 1,837 6.6 -15.7°
Sets 03:20:34 0° 4° (N) 2,732 7.6 -15.4°
